This is the latest recevied weather packets stored in our database for station/object KQ4JKJ. If no packets are shown the sender has not sent any weather packets the latest 1 day(s).
| Time | Temp. | Humidity | Pressure | Rain* | Wind** | Luminosity | Snow |
|---|---|---|---|---|---|---|---|
| 1778039055 | 23.89° C | 77% | 1010.9 hPa | 0 mm | - | 0 W/m² | - |
| 1778038751 | 23.89° C | 77% | 1010.9 hPa | 0 mm | - | 0 W/m² | - |
| 1778038449 | 23.89° C | 78% | 1011 hPa | 0 mm | - | 0 W/m² | - |
| 1778037539 | 23.89° C | 77% | 1011 hPa | 0 mm | - | 0 W/m² | - |
| 1778037236 | 23.89° C | 77% | 1011.1 hPa | 0 mm | - | 0 W/m² | - |
| 1778036934 | 23.89° C | 78% | 1010.8 hPa | 0 mm | - | 0 W/m² | - |
| 1778036632 | 23.89° C | 77% | 1010.9 hPa | 0 mm | - | 0 W/m² | - |
| 1778036328 | 23.89° C | 77% | 1010.9 hPa | 0 mm | - | 0 W/m² | - |
| 1778036025 | 23.89° C | 76% | 1010.9 hPa | 0 mm | - | 0 W/m² | - |
| 1778035722 | 23.89° C | 77% | 1010.9 hPa | 0 mm | - | 0 W/m² | - |
| 1778035419 | 23.89° C | 77% | 1010.9 hPa | 0 mm | - | 0 W/m² | - |
| 1778035115 | 23.89° C | 76% | 1010.9 hPa | 0 mm | - | 0 W/m² | - |
| 1778034812 | 23.89° C | 76% | 1010.9 hPa | 0 mm | - | 0 W/m² | - |
| 1778034509 | 23.89° C | 76% | 1010.8 hPa | 0 mm | - | 0 W/m² | - |
| 1778033601 | 23.89° C | 77% | 1010.6 hPa | 0 mm | - | 0 W/m² | - |
| 1778033297 | 23.89° C | 76% | 1010.6 hPa | 0 mm | - | 0 W/m² | - |
| 1778032995 | 23.89° C | 75% | 1010.4 hPa | 0 mm | - | 0 W/m² | - |
| 1778032693 | 23.89° C | 73% | 1010.6 hPa | 0 mm | - | 0 W/m² | - |
| 1778032087 | 23.89° C | 69% | 1010.6 hPa | 0 mm | - | 0 W/m² | - |
| 1778031784 | 23.89° C | 70% | 1010.4 hPa | 0 mm | - | 0 W/m² | - |
| 1778031481 | 23.89° C | 71% | 1010.4 hPa | 0 mm | - | 0 W/m² | - |
| 1778030874 | 23.89° C | 72% | 1010.3 hPa | 0 mm | - | 0 W/m² | - |
| 1778029663 | 23.89° C | 69% | 1009.9 hPa | 0 mm | - | 0 W/m² | - |
| 1778029360 | 23.89° C | 67% | 1009.7 hPa | 0 mm | - | 0 W/m² | - |
| 1778028754 | 23.89° C | 70% | 1009.8 hPa | 0 mm | - | 0 W/m² | - |
* Rain latest hour (hover to see other rain measurements)
** Current wind speed in m/s (hover to see current wind gust speed)